GJVV0G Weather Reports


time (UTC)temp
C
wind
direction
speed
KPH
gust
KPH
rain 1hr
cm
rain 24hr
cm
rain mn
cm
humidity
%
barometer
mb
20260906172429 23 28 1.6 4.8 0.00 0.00 0.00 75 1022.6
20260906171430 23 132 8.0 9.7 0.00 0.00 0.00 77 1022.8
20260906170431 22 109 6.4 11.3 0.00 0.00 0.00 76 1022.8
20260906165431 22 110 11.3 14.5 0.00 0.00 0.00 77 1022.9
20260906164429 22 115 8.0 11.3 0.00 0.00 0.00 78 1022.7
20260906163430 22 121 9.7 12.9 0.00 0.00 0.00 79 1022.9
20260906162447 22 139 9.7 14.5 0.00 0.00 0.00 81 1023.0
20260906161531 22 108 9.7 14.5 0.00 0.00 0.00 81 1022.7
20260906154631 21 132 9.7 14.5 0.00 0.00 0.00 82 1023.2
20260906153730 21 131 4.8 11.3 0.00 0.00 0.00 84 1023.1
20260906152729 21 104 4.8 8.0 0.00 0.00 0.00 83 1023.2
20260906151729 21 199 3.2 6.4 0.00 0.00 0.00 86 1023.2
20260906150729 21 122 6.4 8.0 0.00 0.00 0.00 87 1023.1
20260906145729 20 143 3.2 9.7 0.00 0.00 0.00 89 1023.1
20260906144731 20 128 4.8 6.4 0.00 0.00 0.00 90 1022.9
20260906144629 20 110 4.8 8.0 0.00 0.00 0.00 90 1023.0
20260906143629 20 105 8.0 11.3 0.00 0.00 0.00 91 1022.9
20260906142631 20 111 8.0 9.7 0.00 0.00 0.00 93 1022.7
20260906141730 20 97 1.6 3.2 0.00 0.00 0.00 95 1022.5
20260906135731 19 30 3.2 8.0 0.00 0.00 0.00 99 1022.5
20260906134729 18 152 0.0 0.0 0.00 0.00 0.00 99 1022.6
20260906133729 18 135 0.0 1.6 0.00 0.00 0.00 100 1022.9
20260906131831 18 155 3.2 6.4 0.00 0.00 0.00 100 1023.0
20260906130829 18 95 3.2 6.4 0.00 0.00 0.00 100 1023.2
20260906125928 18 101 1.6 4.8 0.00 0.00 0.00 99 1023.2
20260906124931 18 112 3.2 4.8 0.00 0.00 0.00 100 1022.9
20260906123930 18 93 3.2 6.4 0.00 0.00 0.00 100 1023.0
20260906121930 18 142 0.0 1.6 0.00 0.00 0.00 100 1022.6
20260906120929 18 45 0.0 0.0 0.00 0.00 0.00 99 1022.6
20260906115933 18 45 0.0 0.0 0.00 0.00 0.00 99 1022.3
20260906115030 18 315 0.0 0.0 0.00 0.00 0.00 100 1022.3
20260906114029 18 315 0.0 0.0 0.00 0.00 0.00 99 1022.1
20260906113128 18 315 0.0 0.0 0.00 0.00 0.00 99 1021.9
20260906112128 18 22 0.0 0.0 0.00 0.00 0.00 99 1021.9
20260906111130 18 22 0.0 0.0 0.00 0.00 0.00 99 1021.7
20260906110128 18 22 0.0 0.0 0.00 0.00 0.00 100 1021.7
20260906105129 18 22 0.0 0.0 0.00 0.00 0.00 100 1021.8
20260906104130 18 22 0.0 0.0 0.00 0.00 0.00 99 1021.8
20260906103230 18 22 0.0 0.0 0.00 0.00 0.00 100 1021.8
20260906102328 18 22 0.0 0.0 0.00 0.00 0.00 100 1021.7
20260906101330 18 22 0.0 0.0 0.00 0.00 0.00 99 1021.5
20260906100329 18 320 1.6 3.2 0.00 0.00 0.00 99 1021.2
20260906095328 18 315 0.0 0.0 0.00 0.00 0.00 100 1021.2
20260906094329 18 315 0.0 0.0 0.00 0.00 0.00 100 1021.1
20260906092330 17 315 0.0 0.0 0.00 0.00 0.00 100 1020.8
20260906090329 17 315 0.0 0.0 0.00 0.00 0.00 100 1021.0
20260906085329 17 315 0.0 0.0 0.00 0.00 0.00 100 1021.1
20260906084428 17 315 0.0 0.0 0.00 0.00 0.00 100 1021.0
20260906083428 17 315 0.0 0.0 0.00 0.00 0.00 100 1021.2
20260906082432 17 315 0.0 0.0 0.00 0.00 0.00 100 1021.2
20260906081529 17 315 0.0 0.0 0.00 0.00 0.00 100 1021.3
20260906080531 17 315 0.0 0.0 0.00 0.00 0.00 100 1021.0
20260906075628 17 315 0.0 0.0 0.00 0.00 0.00 100 1021.0
20260906074630 18 315 0.0 0.0 0.00 0.00 0.00 100 1021.3
20260906073628 18 315 0.0 0.0 0.00 0.00 0.00 100 1021.3
20260906072628 17 315 0.0 0.0 0.00 0.00 0.00 99 1021.3
20260906071644 17 315 0.0 0.0 0.00 0.00 0.00 99 1021.5
20260906070631 17 315 0.0 0.0 0.00 0.00 0.00 99 1021.5
20260906065630 17 315 0.0 0.0 0.00 0.00 0.00 98 1021.6
20260906064728 17 315 0.0 0.0 0.00 0.00 0.00 99 1021.7
20260906062828 17 315 0.0 0.0 0.00 0.00 0.00 99 1021.7
20260906061831 17 315 0.0 0.0 0.00 0.00 0.00 99 1021.7
20260906060830 17 315 0.0 0.0 0.00 0.00 0.00 99 1021.6
20260906055929 17 315 0.0 0.0 0.00 0.00 0.00 99 1021.6
20260906053930 18 315 0.0 0.0 0.00 0.00 0.00 99 1021.6
20260906052930 18 315 0.0 0.0 0.00 0.00 0.00 98 1021.6
20260906051928 18 315 0.0 1.6 0.00 0.00 0.00 99 1021.5
20260906050930 18 315 0.0 0.0 0.00 0.00 0.00 99 1021.4
20260906045929 18 315 0.0 0.0 0.00 0.00 0.00 99 1021.3
20260906044028 18 315 0.0 0.0 0.00 0.00 0.00 99 1021.3
20260906043030 18 315 0.0 0.0 0.00 0.00 0.00 98 1021.4
20260906042030 18 315 0.0 0.0 0.00 0.00 0.00 99 1021.5
20260906041029 19 315 0.0 0.0 0.00 0.00 0.00 98 1021.6
20260906040028 19 315 3.2 3.2 0.00 0.00 0.00 97 1021.5
20260906035029 19 315 0.0 0.0 0.00 0.00 0.00 97 1021.4
20260906034127 19 315 0.0 0.0 0.00 0.00 0.00 98 1021.2
20260906033144 19 315 0.0 0.0 0.00 0.00 0.00 98 1021.1
20260906032228 19 315 0.0 0.0 0.00 0.00 0.00 97 1020.9
20260906031229 19 315 0.0 0.0 0.00 0.00 0.00 98 1020.7
20260906030228 19 315 0.0 0.0 0.00 0.00 0.00 98 1020.6
20260906022247 19 315 0.0 0.0 0.00 0.00 0.00 96 1020.1
20260906021230 20 315 0.0 0.0 0.00 0.00 0.00 97 1020.1
20260906020327 19 315 0.0 1.6 0.00 0.00 0.00 95 1020.0
20260906015328 19 315 0.0 0.0 0.00 0.00 0.00 96 1019.8
20260906014346 20 315 0.0 0.0 0.00 0.00 0.00 94 1019.4
20260906013430 20 315 0.0 0.0 0.00 0.00 0.00 94 1019.2
20260906012429 20 315 0.0 0.0 0.00 0.00 0.00 94 1018.9
20260906011429 20 315 0.0 0.0 0.00 0.00 0.00 93 1018.8
20260906005530 21 315 0.0 3.2 0.00 0.00 0.00 93 1018.5
20260906004627 21 315 1.6 3.2 0.00 0.00 0.00 92 1018.5
20260906002630 22 315 3.2 3.2 0.00 0.00 0.00 90 1018.5
20260906001628 22 315 0.0 0.0 0.00 0.00 0.00 88 1018.3
20260905235527 23 67 0.0 0.0 0.00 0.00 0.00 86 1018.2
20260905233529 23 250 1.6 4.8 0.00 0.00 0.00 83 1018.3
20260905232529 24 247 0.0 1.6 0.00 0.00 0.00 79 1018.6
20260905231627 24 102 4.8 6.4 0.00 0.00 0.00 78 1018.5
20260905230628 24 87 4.8 11.3 0.00 0.00 0.00 78 1018.6
20260905225728 24 106 4.8 9.7 0.00 0.00 0.00 78 1018.6
20260905224729 24 105 8.0 12.9 0.00 0.00 0.00 78 1018.6
20260905223730 25 99 6.4 9.7 0.00 0.00 0.00 77 1018.8
20260905222729 25 99 9.7 14.5 0.00 0.00 0.00 78 1018.8
20260905221744 25 106 8.0 12.9 0.00 0.00 0.00 77 1018.6
20260905220729 25 99 6.4 11.3 0.00 0.00 0.00 77 1018.6
20260905215730 25 105 6.4 11.3 0.00 0.00 0.00 78 1018.7
20260905214828 25 101 9.7 16.1 0.00 0.00 0.00 78 1018.7
20260905213928 25 107 6.4 11.3 0.00 0.00 0.00 78 1019.0
20260905212929 25 85 6.4 11.3 0.00 0.00 0.00 78 1019.1
20260905211929 25 97 8.0 11.3 0.00 0.00 0.00 76 1019.2
20260905210946 26 124 4.8 11.3 0.00 0.00 0.00 76 1019.2
20260905205944 26 108 9.7 12.9 0.00 0.00 0.00 73 1019.1
20260905204029 27 95 6.4 11.3 0.00 0.00 0.00 73 1019.0
20260905203127 27 105 6.4 11.3 0.00 0.00 0.00 73 1019.0
20260905201127 26 101 3.2 4.8 0.00 0.00 0.00 75 1019.1
20260905200129 26 90 3.2 6.4 0.00 0.00 0.00 75 1019.3
20260905194128 27 126 6.4 9.7 0.00 0.00 0.00 72 1019.2
20260905193129 26 105 6.4 9.7 0.00 0.00 0.00 73 1019.2
20260905191227 27 134 3.2 6.4 0.00 0.00 0.00 72 1019.4
20260905190227 26 135 1.6 3.2 0.00 0.00 0.00 74 1019.5
20260905185228 27 112 3.2 6.4 0.00 0.00 0.00 72 1019.5
20260905183227 27 202 1.6 4.8 0.00 0.00 0.00 74 1019.3
20260905182228 26 137 4.8 8.0 0.00 0.00 0.00 77 1019.4
20260905180329 25 91 6.4 9.7 0.00 0.00 0.00 78 1019.5
20260905175328 25 142 3.2 6.4 0.00 0.00 0.00 78 1019.6